This is the latest recevied weather packets stored in our database for station/object OK1FET-4. If no packets are shown the sender has not sent any weather packets the latest 10 day(s).
| Time | Temp. | Humidity | Pressure | Rain* | Wind** | Luminosity | Snow |
|---|---|---|---|---|---|---|---|
| 1778014017 | 13.33° C | 91% | 1006.5 hPa | - | - | - | - |
| 1778013716 | 13.33° C | 90% | 1006.2 hPa | - | - | - | - |
| 1778013716 | 13.33° C | 90% | 1006.2 hPa | - | - | - | - |
| 1778013716 | 13.33° C | 90% | 1006.2 hPa | - | - | - | - |
| 1778013416 | 13.89° C | 89% | 1006.1 hPa | - | - | - | - |
| 1778013416 | 13.89° C | 89% | 1006.1 hPa | - | - | - | - |
| 1778013416 | 13.89° C | 89% | 1006.1 hPa | - | - | - | - |
| 1778013115 | 14.44° C | 84% | 1005.9 hPa | - | - | - | - |
| 1778013115 | 14.44° C | 84% | 1005.9 hPa | - | - | - | - |
| 1778013115 | 14.44° C | 84% | 1005.9 hPa | - | - | - | - |
| 1778012815 | 15° C | 80% | 1005.7 hPa | - | - | - | - |
| 1778012815 | 15° C | 80% | 1005.7 hPa | - | - | - | - |
| 1778012815 | 15° C | 80% | 1005.7 hPa | - | - | - | - |
| 1778012514 | 16.11° C | 72% | 1005.8 hPa | - | - | - | - |
| 1778012514 | 16.11° C | 72% | 1005.8 hPa | - | - | - | - |
| 1778012514 | 16.11° C | 72% | 1005.8 hPa | - | - | - | - |
| 1778012214 | 17.22° C | 62% | 1005.8 hPa | - | - | - | - |
| 1778012213 | 17.22° C | 62% | 1005.8 hPa | - | - | - | - |
| 1778012213 | 17.22° C | 62% | 1005.8 hPa | - | - | - | - |
| 1778011913 | 17.22° C | 59% | 1005.4 hPa | - | - | - | - |
| 1778011913 | 17.22° C | 59% | 1005.4 hPa | - | - | - | - |
| 1778011913 | 17.22° C | 59% | 1005.4 hPa | - | - | - | - |
| 1778011612 | 17.78° C | 58% | 1005.3 hPa | - | - | - | - |
| 1778011612 | 17.78° C | 58% | 1005.3 hPa | - | - | - | - |
| 1778011311 | 17.78° C | 59% | 1005.3 hPa | - | - | - | - |
* Rain since midnight (hover to see other rain measurements)
** Current wind speed in m/s (hover to see current wind gust speed)